Regional Weather Roundup
Issued by NWS Cleveland, OH

Home | Current Version | Previous Version | Graphics & Text | Print | Product List | Glossary Off
Versions: 1 2 3 4 5 6 7 8 9 10 11 12 13 14 15 16 17 18 19 20 21 22 23 24 25 26 27 28 29 30 31 32 33 34 35 36 37 38 39 40 41 42 43 44 45 46 47 48 49 50

000
ASUS41 KCLE 010810
RWRCLE
OHIO REGIONAL WEATHER ROUNDUP
NATIONAL WEATHER SERVICE CLEVELAND, OH
400 AM EDT TUE SEP 01 2015

NOTE: "FAIR" INDICATES FEW OR NO CLOUDS BELOW 12,000 FEET WITH NO
SIGNIFICANT WEATHER AND/OR OBSTRUCTIONS TO VISIBILITY.

OHZ001>008-015>018-024>027-034-035-043-044-010900-
   NORTHWEST OHIO

CITY           SKY/WX    TMP DP  RH WIND       PRES   REMARKS
DEFIANCE       FOG       67  66  97 CALM      30.08S VSB 3/4
FINDLAY        CLEAR     69  66  90 S3        30.08S FOG
TOLEDO EXPRESS CLEAR     66  66 100 CALM      30.07S FOG
TOLEDO EXEC    CLEAR     70  65  84 CALM      30.08S HAZE
LIMA           CLEAR     69  66  90 S3        30.10S
$$

OHZ009>014-019>023-028>033-038-089-010900-
   NORTHEAST OHIO

CITY           SKY/WX    TMP DP  RH WIND       PRES   REMARKS
CLE-HOPKINS    CLEAR     69  65  86 S5        30.10F
CLE-LAKEFRONT  CLEAR     73  66  78 S7        30.06F
CUY CO. ARPT   NOT AVBL
LORAIN-ELYRIA  CLEAR     67  65  93 SW5       30.09S FOG
ASHTABULA      CLEAR     63  63 100 SE3       30.10S FOG
AKRON-CANTON   CLEAR     69  65  86 CALM      30.11S FOG
WOOSTER        CLEAR     64  62  93 CALM      30.11F FOG
MANSFIELD      CLEAR     69  67  93 S3        30.12S
YOUNGSTOWN     PTCLDY    65  63  93 CALM      30.11S
$$

OHZ042-051>053-060>062-070>072-077>081-010900-
  SOUTHWEST OHIO

CITY           SKY/WX    TMP DP  RH WIND       PRES   REMARKS
CINC-COVINGTON CLEAR     67  66  97 CALM      30.11S
CINC-LUNKEN    CLEAR     66  66 100 CALM      30.11S FOG
HAMILTON       CLEAR     67  66  97 CALM      30.11S FOG
DAYTON         CLEAR     68  67  96 W3        30.12S
WRIGHT-PAT AFB CLEAR     68  66  94 SW2       30.10F
DAYTON GENERAL CLEAR     69  66  90 CALM      30.11S
WILMINGTON     CLEAR     66  64  93 CALM      30.11F FOG
$$

OHZ036-037-039>041-045>050-054>059-063>069-073>076-082>088-010900-
  CENTRAL AND SOUTHEAST OHIO

CITY           SKY/WX    TMP DP  RH WIND       PRES   REMARKS
COLUMBUS       CLEAR     69  67  93 CALM      30.09F
OSU AIRPORT    CLEAR     68  66  93 CALM      30.10F FOG
BOLTON FIELD   CLEAR     65  65 100 CALM      30.11S FOG
RICKENBACK AFB CLEAR     66  65  97 CALM      30.09F FOG
NEWARK         PTCLDY    64  63  96 CALM      30.10S FOG
MARION         CLEAR     67  65  93 CALM      30.11S FOG
LANCASTER      CLEAR     64  62  93 CALM      30.10F FOG
ZANESVILLE     PTCLDY    66  62  87 CALM      30.10F FOG
NEW PHILLY     CLEAR     65  65 100 CALM      30.11S FOG
$$


USA.gov is the U.S. government's official web portal to all federal, state and local government web resources and services.